Погода в Еленовке

Россия / Республика Крым     45°34′49″N   34°02′57″E
темп.,
°C
ветер,
м/с
пор.,
м/с
влажн.,
%
обл.,
%
осадки,
мм/ч
давл.,
гПа
погр.,
м
10 апреля, сб
сб1000:00+3ссз466556 0.0 1025103
03:00+2ссз357116 0.0 102569
06:00+2с47735 0.0 1025119
09:00+7ссв5755100 0.0 1025464
12:00+11св6737100 0.0 10252208
15:00+12св673698 0.0 10242205
18:00+11св464576 0.0 10241712
21:00+6сз356173 0.0 102483
11 апреля, вс
вс1100:00+6с4106163 0.0 1024199
03:00+6ссв4116499 0.0 1024258
06:00+5с4126981 0.0 1024269
09:00+10ссв7125493 0.0 1024773
12:00+13св8104294 0.0 10231414
15:00+12св5949100 0.0 10221331
18:00+9св2364100 0.0 102295
21:00+9св3763100 0.0 1022197
12 апреля, пн
пн1200:00+8всв2375100 0.0 102185
03:00+8с3694100 1.3 1020266
06:00+8с3693100 1.0 1020300
09:00+8ссв2488100 1.1 1020257
12:00+10юв118097 0.0 1020576
15:00+12юз327092 0.0 1020906
18:00+11зюз227277 0.0 1020529
21:00+9зюз2282100 0.0 102129
13 апреля, вт
вт1300:00+8зюз2386100 0.0 1021112
03:00+8з2488100 0.0 1021192
06:00+8зюз2292100 0.0 102266
09:00+10юз2380100 0.0 1022382
12:00+14ююз2259100 0.1 10211357
15:00+14зюз3260100 0.1 1021972
18:00+12юз4471100 0.0 1021373
21:00+10зюз3478100 0.0 1021210
14 апреля, ср
ср1400:00+9зюз2380100 0.0 1020156
03:00+7зюз118998 0.0 101912
06:00+6в119149 0.0 101910
09:00+11в3474100 0.0 1017444
12:00+15юв3351100 0.0 1016969
15:00+17ююв2444100 0.0 10151666
18:00+14юз4660100 0.0 1014360
21:00+12юв357183 0.0 1014171